ZHONGXING-12 (39017 NORAD) Tracking and Keplerian Element Data

This shows tracking and keplerian element data for the satellite.

Feedback or suggestion? Click here.




ElementValue
Catalog39017
NameZHONGXING-12
Epoch Orbit4451
Epoch Day34.70094995
Epoch Year2025
RAAN103.461
Inclination0.0425
Eccentricity0.0003113
Argument of Perigee207.9095
Mean Anonmoly162.5598
Mean Motion1.00269715
Decay Rate-2.02E-06
L11 39017U 12067A 25034.70094995 -.00000202 00000+0 00000+0 0 9996
L22 39017 0.0425 103.4610 0003113 207.9095 162.5598 1.00269715 44519



Live tracking and technical data element details for ZHONGXING-12 (NORAD 39017). ZHONGXING-12 can be tracked NOW for your location showing map with azimuth and elevation plus other details from your city location.







IsCatalogInMostPopularTable: catalog: 39017, numindb: 714
Update: records affected: 1



GetName: 39017 ZHONGXING-12

Hit Count: updated at: Wed, 18 Jun 2025 06:25:48 GMT